Вернуться в каталог

CZ-6A DEB

АктивенSSO
NORAD 56239·DEBRIS·🇨🇳 China

Запущен Nov 11, 2022 с Taiyuan Satellite Launch Center

Loading…

Ближайшие Пролёты (ближайшие 24 часа)

TLE

СвежийSource: Space-Track

Эпоха: Sep 12, 2026, 12:06 UTC

1 56239U 22151ABF 26255.50483080  .00002306  00000-0  79271-3 0  9994
2 56239  98.6828 274.2511 0063581 217.4308 142.2440 14.35870176186787

Отслеживайте CZ-6A DEB в реальном времени с AllMySat

Download on the App Store